| time (UTC) | temp C | wind direction | speed KPH | gust KPH | rain 1hr cm | rain 24hr cm | rain mn cm | humidity % | barometer mb |
| 20260506073201 | 5 | 98 | 8.0 | 24.1 | 0.00 | 0.00 | 0.00 | 53 | 966.4 |
| 20260506072701 | 6 | 111 | 8.0 | 20.9 | 0.00 | 0.00 | 0.00 | 56 | 966.2 |
| 20260506072201 | 5 | 79 | 8.0 | 25.7 | 0.00 | 0.00 | 0.00 | 57 | 966.2 |
| 20260506071701 | 5 | 104 | 8.0 | 25.7 | 0.00 | 0.00 | 0.00 | 56 | 966.2 |
| 20260506071201 | 5 | 344 | 6.4 | 22.5 | 0.00 | 0.00 | 0.00 | 57 | 966.1 |
| 20260506070701 | 5 | 73 | 8.0 | 27.4 | 0.00 | 0.00 | 0.00 | 55 | 966.0 |
| 20260506070201 | 6 | 145 | 8.0 | 27.4 | 0.00 | 0.00 | 0.00 | 55 | 966.0 |
| 20260506062101 | 5 | 43 | 9.7 | 27.4 | 0.00 | 0.00 | 0.00 | 62 | 966.0 |
| 20260506061531 | 3 | 179 | 9.7 | 27.4 | 0.00 | 0.00 | 0.00 | 62 | 965.6 |
| 20260506061001 | 4 | 123 | 8.0 | 30.6 | 0.00 | 0.00 | 0.00 | 60 | 966.0 |
| 20260506060431 | 4 | 0 | 8.0 | 30.6 | 0.00 | 0.00 | 0.00 | 60 | 966.0 |
| 20260506051301 | 3 | 113 | 8.0 | 25.7 | 0.00 | 0.00 | 0.00 | 62 | 965.4 |
| 20260506050801 | 3 | 107 | 8.0 | 30.6 | 0.00 | 0.00 | 0.00 | 63 | 965.3 |
| 20260506050301 | 3 | 120 | 9.7 | 30.6 | 0.00 | 0.00 | 0.00 | 65 | 965.3 |
| 20260506044731 | 2 | 166 | 8.0 | 27.4 | 0.00 | 0.00 | 0.00 | 66 | 965.2 |
| 20260506044231 | 2 | 85 | 8.0 | 27.4 | 0.00 | 0.00 | 0.00 | 67 | 965.4 |
| 20260506043731 | 2 | 122 | 8.0 | 27.4 | 0.00 | 0.00 | 0.00 | 67 | 965.2 |
| 20260506043231 | 2 | 96 | 8.0 | 24.1 | 0.00 | 0.00 | 0.00 | 68 | 965.2 |
| 20260506042701 | 1 | 131 | 8.0 | 29.0 | 0.00 | 0.00 | 0.00 | 70 | 965.2 |
| 20260506042200 | 0 | 277 | 8.0 | 29.0 | 0.00 | 0.00 | 0.00 | 74 | 965.2 |
| 20260506041700 | 0 | 124 | 8.0 | 27.4 | 0.00 | 0.00 | 0.00 | 71 | 965.0 |
| 20260506041200 | 2 | 63 | 8.0 | 33.8 | 0.00 | 0.00 | 0.00 | 67 | 965.0 |
| 20260506040700 | 1 | 105 | 6.4 | 33.8 | 0.00 | 0.00 | 0.00 | 68 | 965.0 |
| 20260506040130 | 1 | 3 | 6.4 | 33.8 | 0.00 | 0.00 | 0.00 | 68 | 965.0 |
| 20260506035630 | 1 | 11 | 6.4 | 27.4 | 0.00 | 0.00 | 0.00 | 71 | 965.0 |
| 20260506035100 | 1 | 93 | 8.0 | 27.4 | 0.00 | 0.00 | 0.00 | 72 | 965.0 |
| 20260506034600 | 0 | 88 | 6.4 | 27.4 | 0.00 | 0.00 | 0.00 | 74 | 965.0 |
| 20260506034030 | 0 | 73 | 6.4 | 19.3 | 0.00 | 0.00 | 0.00 | 75 | 965.0 |
| 20260506033530 | 0 | 353 | 6.4 | 19.3 | 0.00 | 0.00 | 0.00 | 80 | 964.6 |
| 20260506033000 | 0 | 64 | 6.4 | 20.9 | 0.00 | 0.00 | 0.00 | 80 | 965.0 |
| 20260506032430 | 0 | 175 | 6.4 | 20.9 | 0.00 | 0.00 | 0.00 | 81 | 965.0 |
| 20260506031930 | 0 | 154 | 8.0 | 20.9 | 0.00 | 0.00 | 0.00 | 81 | 965.0 |
| 20260506031430 | 0 | 203 | 8.0 | 25.7 | 0.00 | 0.00 | 0.00 | 81 | 965.0 |
| 20260506030930 | 0 | 112 | 8.0 | 25.7 | 0.00 | 0.00 | 0.00 | 81 | 964.6 |
| 20260506030430 | 0 | 113 | 8.0 | 24.1 | 0.00 | 0.00 | 0.00 | 82 | 964.6 |
| 20260506025930 | 0 | 138 | 8.0 | 25.7 | 0.00 | 0.00 | 0.00 | 81 | 964.6 |
| 20260506025400 | 0 | 146 | 8.0 | 25.7 | 0.00 | 0.00 | 0.00 | 81 | 964.6 |
| 20260506024900 | 0 | 115 | 8.0 | 25.7 | 0.00 | 0.00 | 0.00 | 81 | 964.6 |
| 20260506024400 | 0 | 67 | 8.0 | 25.7 | 0.00 | 0.00 | 0.00 | 82 | 964.6 |
| 20260506023900 | 0 | 41 | 8.0 | 27.4 | 0.00 | 0.00 | 0.00 | 82 | 964.6 |
| 20260506023400 | 0 | 36 | 8.0 | 27.4 | 0.00 | 0.00 | 0.00 | 82 | 964.5 |
| 20260506022900 | 0 | 103 | 8.0 | 24.1 | 0.00 | 0.00 | 0.00 | 81 | 964.6 |
| 20260506022400 | 0 | 96 | 6.4 | 24.1 | 0.00 | 0.00 | 0.00 | 81 | 965.0 |
| 20260506021900 | 0 | 339 | 6.4 | 24.1 | 0.00 | 0.00 | 0.00 | 80 | 964.6 |
| 20260506021400 | 0 | 117 | 6.4 | 20.9 | 0.00 | 0.00 | 0.00 | 81 | 964.6 |
| 20260506020830 | 0 | 7 | 6.4 | 20.9 | 0.00 | 0.00 | 0.00 | 81 | 964.5 |
| 20260506020330 | 0 | 114 | 6.4 | 24.1 | 0.00 | 0.00 | 0.00 | 81 | 964.5 |
| 20260506015800 | 0 | 92 | 6.4 | 24.1 | 0.00 | 0.00 | 0.00 | 81 | 964.4 |
| 20260506015300 | 0 | 28 | 6.4 | 24.1 | 0.00 | 0.00 | 0.00 | 81 | 965.0 |
| 20260506014730 | 0 | 56 | 6.4 | 19.3 | 0.00 | 0.00 | 0.00 | 82 | 964.5 |
| 20260506014230 | 0 | 118 | 4.8 | 17.7 | 0.00 | 0.00 | 0.00 | 82 | 964.5 |
| 20260506013730 | 0 | 14 | 4.8 | 17.7 | 0.00 | 0.00 | 0.00 | 83 | 964.4 |
| 20260506013230 | 0 | 78 | 4.8 | 16.1 | 0.00 | 0.00 | 0.00 | 83 | 964.4 |
| 20260506012700 | 0 | 39 | 4.8 | 16.1 | 0.00 | 0.00 | 0.00 | 83 | 964.4 |
| 20260506012200 | 0 | 70 | 4.8 | 17.7 | 0.00 | 0.00 | 0.00 | 83 | 964.3 |
| 20260506011700 | -1 | 124 | 4.8 | 25.7 | 0.00 | 0.00 | 0.00 | 84 | 964.2 |
| 20260506011200 | -1 | 62 | 4.8 | 25.7 | 0.00 | 0.00 | 0.00 | 84 | 964.2 |
| 20260506010700 | -1 | 104 | 4.8 | 25.7 | 0.00 | 0.00 | 0.00 | 83 | 964.2 |
| 20260506010130 | -1 | 128 | 4.8 | 19.3 | 0.00 | 0.00 | 0.00 | 83 | 964.1 |
| 20260506005630 | -1 | 114 | 4.8 | 19.3 | 0.00 | 0.00 | 0.00 | 82 | 964.2 |
| 20260506005100 | -1 | 83 | 4.8 | 14.5 | 0.00 | 0.00 | 0.00 | 83 | 964.1 |
| 20260506004600 | -1 | 66 | 3.2 | 14.5 | 0.00 | 0.00 | 0.00 | 82 | 964.1 |
| 20260506004100 | -1 | 349 | 4.8 | 16.1 | 0.00 | 0.00 | 0.00 | 82 | 964.2 |
| 20260506003600 | -1 | 356 | 4.8 | 16.1 | 0.00 | 0.00 | 0.00 | 83 | 964.0 |
| 20260506003100 | -1 | 85 | 6.4 | 17.7 | 0.00 | 0.00 | 0.00 | 82 | 964.2 |
| 20260506002530 | -1 | 68 | 6.4 | 20.9 | 0.00 | 0.00 | 0.00 | 82 | 964.0 |
| 20260506002000 | -1 | 247 | 4.8 | 20.9 | 0.00 | 0.00 | 0.00 | 82 | 964.0 |
| 20260506001429 | -1 | 70 | 4.8 | 20.9 | 0.00 | 0.00 | 0.00 | 83 | 964.0 |
| 20260506000929 | -1 | 118 | 6.4 | 25.7 | 0.00 | 0.00 | 0.00 | 84 | 964.0 |
| 20260506000401 | -1 | 122 | 4.8 | 25.7 | 0.00 | 0.00 | 0.00 | 84 | 964.0 |
| 20260505235859 | -1 | 26 | 3.2 | 14.5 | 0.00 | 0.00 | 0.00 | 84 | 964.0 |
| 20260505235359 | -1 | 353 | 4.8 | 14.5 | 0.00 | 0.00 | 0.00 | 83 | 964.1 |
| 20260505234859 | -1 | 94 | 4.8 | 11.3 | 0.00 | 0.00 | 0.00 | 83 | 964.0 |
| 20260505234329 | -1 | 102 | 3.2 | 14.5 | 0.00 | 0.00 | 0.00 | 83 | 964.0 |
| 20260505233829 | -1 | 121 | 3.2 | 14.5 | 0.00 | 0.00 | 0.00 | 83 | 964.0 |
| 20260505233329 | -1 | 61 | 4.8 | 17.7 | 0.00 | 0.00 | 0.00 | 83 | 964.0 |
| 20260505232759 | -1 | 88 | 4.8 | 17.7 | 0.00 | 0.00 | 0.00 | 84 | 964.1 |
| 20260505232259 | -1 | 123 | 4.8 | 17.7 | 0.00 | 0.00 | 0.00 | 83 | 964.0 |
| 20260505231759 | -1 | 67 | 4.8 | 14.5 | 0.00 | 0.00 | 0.00 | 84 | 964.0 |
| 20260505231259 | -1 | 89 | 4.8 | 16.1 | 0.00 | 0.00 | 0.00 | 84 | 964.0 |
| 20260505230729 | -1 | 16 | 4.8 | 20.9 | 0.00 | 0.00 | 0.00 | 85 | 964.0 |
| 20260505230229 | -1 | 81 | 4.8 | 20.9 | 0.00 | 0.00 | 0.00 | 84 | 964.0 |
| 20260505225729 | -1 | 113 | 4.8 | 20.9 | 0.00 | 0.00 | 0.00 | 84 | 964.0 |
| 20260505225229 | -1 | 17 | 3.2 | 11.3 | 0.00 | 0.00 | 0.00 | 84 | 964.1 |
| 20260505224729 | -1 | 14 | 3.2 | 11.3 | 0.00 | 0.00 | 0.00 | 84 | 964.0 |
| 20260505224229 | -1 | 310 | 3.2 | 9.7 | 0.00 | 0.00 | 0.00 | 84 | 964.0 |
| 20260505223659 | -1 | 15 | 3.2 | 12.9 | 0.00 | 0.00 | 0.00 | 83 | 964.0 |
| 20260505223159 | -1 | 14 | 3.2 | 14.5 | 0.00 | 0.00 | 0.00 | 82 | 964.0 |
| 20260505222659 | -1 | 117 | 3.2 | 14.5 | 0.00 | 0.00 | 0.00 | 82 | 964.0 |
| 20260505222129 | -1 | 49 | 3.2 | 14.5 | 0.00 | 0.00 | 0.00 | 82 | 964.0 |
| 20260505221629 | -1 | 67 | 3.2 | 14.5 | 0.00 | 0.00 | 0.00 | 82 | 964.0 |
| 20260505221129 | -1 | 134 | 3.2 | 14.5 | 0.00 | 0.00 | 0.00 | 82 | 964.0 |
| 20260505220629 | -1 | 95 | 3.2 | 14.5 | 0.00 | 0.00 | 0.00 | 83 | 964.0 |
| 20260505220129 | -1 | 50 | 3.2 | 9.7 | 0.00 | 0.00 | 0.00 | 82 | 964.0 |
| 20260505215629 | -1 | 97 | 3.2 | 12.9 | 0.00 | 0.00 | 0.00 | 82 | 964.0 |
| 20260505215059 | -1 | 3 | 4.8 | 17.7 | 0.00 | 0.00 | 0.00 | 82 | 964.0 |
| 20260505214559 | -1 | 24 | 4.8 | 19.3 | 0.00 | 0.00 | 0.00 | 82 | 964.0 |
| 20260505214059 | -1 | 334 | 4.8 | 19.3 | 0.00 | 0.00 | 0.00 | 82 | 964.0 |
| 20260505213529 | -1 | 82 | 4.8 | 20.9 | 0.00 | 0.00 | 0.00 | 82 | 964.0 |
| 20260505213029 | -1 | 125 | 4.8 | 20.9 | 0.00 | 0.00 | 0.00 | 81 | 964.0 |
| 20260505212529 | -1 | 105 | 3.2 | 17.7 | 0.00 | 0.00 | 0.00 | 82 | 964.0 |
| 20260505212028 | -1 | 40 | 1.6 | 11.3 | 0.00 | 0.00 | 0.00 | 83 | 964.0 |
| 20260505211528 | -1 | 120 | 1.6 | 11.3 | 0.00 | 0.00 | 0.00 | 83 | 963.6 |
| 20260505210958 | -1 | 0 | 1.6 | 11.3 | 0.00 | 0.00 | 0.00 | 83 | 964.0 |
| 20260505210458 | -1 | 99 | 3.2 | 11.3 | 0.00 | 0.00 | 0.00 | 82 | 964.0 |
| 20260505205958 | 0 | 119 | 4.8 | 17.7 | 0.00 | 0.00 | 0.00 | 82 | 964.0 |
| 20260505205458 | 0 | 78 | 4.8 | 17.7 | 0.00 | 0.00 | 0.00 | 83 | 963.5 |
| 20260505204958 | 0 | 102 | 4.8 | 14.5 | 0.00 | 0.00 | 0.00 | 83 | 963.3 |
| 20260505204458 | 0 | 223 | 4.8 | 16.1 | 0.00 | 0.00 | 0.00 | 85 | 963.3 |
| 20260505203958 | 0 | 59 | 4.8 | 16.1 | 0.00 | 0.00 | 0.00 | 85 | 963.4 |
| 20260505203458 | 0 | 99 | 4.8 | 16.1 | 0.00 | 0.00 | 0.00 | 86 | 963.4 |
| 20260505202958 | 0 | 70 | 4.8 | 16.1 | 0.00 | 0.00 | 0.00 | 87 | 963.1 |
| 20260505202458 | 0 | 96 | 4.8 | 14.5 | 0.00 | 0.00 | 0.00 | 88 | 963.1 |
| 20260505201958 | 0 | 37 | 4.8 | 17.7 | 0.00 | 0.00 | 0.00 | 87 | 963.2 |
| 20260505201458 | 0 | 356 | 4.8 | 17.7 | 0.00 | 0.00 | 0.00 | 87 | 963.2 |
| 20260505200958 | 0 | 80 | 4.8 | 19.3 | 0.00 | 0.00 | 0.00 | 87 | 963.3 |
| 20260505200458 | 0 | 42 | 3.2 | 19.3 | 0.00 | 0.00 | 0.00 | 86 | 963.3 |
| 20260505195958 | 0 | 77 | 3.2 | 16.1 | 0.00 | 0.00 | 0.00 | 84 | 963.3 |
| 20260505195458 | 0 | 75 | 3.2 | 12.9 | 0.00 | 0.00 | 0.00 | 83 | 963.3 |
| 20260505194958 | 0 | 63 | 4.8 | 12.9 | 0.00 | 0.00 | 0.00 | 82 | 963.3 |
| 20260505194458 | 0 | 15 | 4.8 | 17.7 | 0.00 | 0.00 | 0.00 | 81 | 963.3 |
| 20260505193958 | 0 | 108 | 4.8 | 20.9 | 0.00 | 0.00 | 0.00 | 81 | 963.3 |
| 20260505193458 | 0 | 107 | 4.8 | 20.9 | 0.00 | 0.00 | 0.00 | 81 | 963.2 |
| 20260505192958 | 0 | 111 | 6.4 | 24.1 | 0.00 | 0.00 | 0.00 | 79 | 963.2 |
| 20260505192458 | 0 | 55 | 6.4 | 24.1 | 0.00 | 0.00 | 0.00 | 78 | 963.2 |
| 20260505191958 | 1 | 334 | 6.4 | 24.1 | 0.00 | 0.00 | 0.00 | 77 | 963.2 |
| 20260505191428 | 1 | 117 | 8.0 | 27.4 | 0.00 | 0.00 | 0.00 | 73 | 963.2 |
| 20260505190928 | 1 | 131 | 8.0 | 27.4 | 0.00 | 0.00 | 0.00 | 71 | 963.1 |
| 20260505190358 | 1 | 53 | 6.4 | 24.1 | 0.00 | 0.00 | 0.00 | 71 | 963.1 |
| 20260505185858 | 1 | 113 | 6.4 | 24.1 | 0.00 | 0.00 | 0.00 | 70 | 963.0 |
| 20260505185358 | 1 | 66 | 8.0 | 27.4 | 0.00 | 0.00 | 0.00 | 69 | 963.0 |
| 20260505184858 | 1 | 124 | 9.7 | 30.6 | 0.00 | 0.00 | 0.00 | 70 | 963.0 |
| 20260505184358 | 1 | 114 | 8.0 | 30.6 | 0.00 | 0.00 | 0.00 | 69 | 963.0 |
| 20260505183828 | 1 | 63 | 6.4 | 20.9 | 0.00 | 0.00 | 0.00 | 68 | 963.0 |
| 20260505183328 | 1 | 114 | 6.4 | 22.5 | 0.00 | 0.00 | 0.00 | 66 | 963.0 |
| 20260505182827 | 1 | 119 | 8.0 | 27.4 | 0.00 | 0.00 | 0.00 | 66 | 963.0 |
| 20260505182327 | 1 | 192 | 9.7 | 27.4 | 0.00 | 0.00 | 0.00 | 65 | 963.0 |
| 20260505181757 | 2 | 161 | 11.3 | 32.2 | 0.00 | 0.00 | 0.00 | 63 | 963.0 |
| 20260505181257 | 2 | 126 | 11.3 | 33.8 | 0.00 | 0.00 | 0.00 | 62 | 963.0 |
| 20260505180757 | 2 | 124 | 12.9 | 33.8 | 0.00 | 0.00 | 0.00 | 62 | 963.0 |
| 20260505180257 | 2 | 184 | 11.3 | 33.8 | 0.00 | 0.00 | 0.00 | 62 | 962.6 |
| 20260505175757 | 2 | 184 | 9.7 | 22.5 | 0.00 | 0.00 | 0.00 | 63 | 963.0 |
| 20260505175257 | 2 | 196 | 11.3 | 22.5 | 0.00 | 0.00 | 0.00 | 65 | 962.6 |
| 20260505174757 | 2 | 182 | 9.7 | 24.1 | 0.00 | 0.00 | 0.00 | 65 | 962.6 |
| 20260505174257 | 2 | 189 | 9.7 | 24.1 | 0.00 | 0.00 | 0.00 | 65 | 962.6 |
| 20260505173757 | 2 | 198 | 11.3 | 30.6 | 0.00 | 0.00 | 0.00 | 64 | 962.6 |
| 20260505173257 | 2 | 189 | 11.3 | 30.6 | 0.00 | 0.00 | 0.00 | 64 | 963.0 |
| 20260505172757 | 2 | 134 | 9.7 | 30.6 | 0.00 | 0.00 | 0.00 | 61 | 962.4 |
| 20260505172257 | 2 | 190 | 9.7 | 25.7 | 0.00 | 0.00 | 0.00 | 58 | 962.5 |
| 20260505171757 | 2 | 189 | 9.7 | 29.0 | 0.00 | 0.00 | 0.00 | 56 | 962.5 |
| 20260505171257 | 3 | 133 | 9.7 | 29.0 | 0.00 | 0.00 | 0.00 | 53 | 962.5 |
| 20260505170757 | 3 | 151 | 9.7 | 29.0 | 0.00 | 0.00 | 0.00 | 52 | 962.5 |
| 20260505170227 | 3 | 164 | 11.3 | 35.4 | 0.00 | 0.00 | 0.00 | 53 | 962.4 |
| 20260505165657 | 3 | 189 | 12.9 | 35.4 | 0.00 | 0.00 | 0.00 | 51 | 962.3 |
| 20260505165157 | 3 | 169 | 12.9 | 35.4 | 0.00 | 0.00 | 0.00 | 51 | 962.4 |
| 20260505164657 | 3 | 157 | 11.3 | 41.8 | 0.00 | 0.00 | 0.00 | 52 | 962.4 |
| 20260505164157 | 3 | 175 | 11.3 | 41.8 | 0.00 | 0.00 | 0.00 | 51 | 962.3 |
| 20260505163657 | 3 | 182 | 11.3 | 41.8 | 0.00 | 0.00 | 0.00 | 50 | 962.1 |
| 20260505163127 | 3 | 61 | 9.7 | 41.8 | 0.00 | 0.00 | 0.00 | 50 | 962.0 |
| 20260505162627 | 3 | 67 | 9.7 | 32.2 | 0.00 | 0.00 | 0.00 | 48 | 962.1 |
| 20260505162127 | 4 | 35 | 8.0 | 25.7 | 0.00 | 0.00 | 0.00 | 54 | 962.1 |
| 20260505161627 | 3 | 86 | 8.0 | 25.7 | 0.00 | 0.00 | 0.00 | 55 | 962.1 |
| 20260505161127 | 3 | 187 | 8.0 | 25.7 | 0.00 | 0.00 | 0.00 | 53 | 962.1 |
| 20260505160627 | 3 | 83 | 9.7 | 25.7 | 0.00 | 0.00 | 0.00 | 55 | 962.2 |
| 20260505153056 | 3 | 142 | 9.7 | 29.0 | 0.00 | 0.00 | 0.00 | 51 | 962.1 |
| 20260505152556 | 3 | 146 | 9.7 | 32.2 | 0.00 | 0.00 | 0.00 | 52 | 962.1 |
| 20260505152026 | 3 | 77 | 9.7 | 32.2 | 0.00 | 0.00 | 0.00 | 51 | 962.1 |
| 20260505151526 | 4 | 17 | 9.7 | 30.6 | 0.00 | 0.00 | 0.00 | 50 | 962.1 |
| 20260505151026 | 5 | 73 | 9.7 | 30.6 | 0.00 | 0.00 | 0.00 | 48 | 962.0 |
| 20260505150526 | 6 | 139 | 12.9 | 46.7 | 0.00 | 0.00 | 0.00 | 46 | 962.0 |
| 20260505140326 | 2 | 193 | 11.3 | 41.8 | 0.00 | 0.00 | 0.00 | 64 | 962.0 |
| 20260505130126 | 3 | 129 | 11.3 | 24.1 | 0.00 | 0.00 | 0.00 | 60 | 961.4 |
| 20260505124556 | 3 | 123 | 12.9 | 41.8 | 0.00 | 0.00 | 0.00 | 56 | 961.5 |
| 20260505124056 | 3 | 167 | 12.9 | 41.8 | 0.00 | 0.00 | 0.00 | 56 | 961.5 |
| 20260505123556 | 5 | 161 | 14.5 | 45.1 | 0.00 | 0.00 | 0.00 | 54 | 961.2 |
| 20260505123056 | 4 | 139 | 16.1 | 45.1 | 0.00 | 0.00 | 0.00 | 60 | 961.2 |
| 20260505122556 | 5 | 189 | 12.9 | 41.8 | 0.00 | 0.00 | 0.00 | 47 | 961.1 |
| 20260505122056 | 6 | 186 | 11.3 | 40.2 | 0.00 | 0.00 | 0.00 | 49 | 961.0 |
| 20260505121556 | 6 | 183 | 12.9 | 41.8 | 0.00 | 0.00 | 0.00 | 45 | 961.0 |
| 20260505121056 | 6 | 122 | 12.9 | 41.8 | 0.00 | 0.00 | 0.00 | 47 | 961.0 |
| 20260505120556 | 6 | 129 | 11.3 | 33.8 | 0.00 | 0.00 | 0.00 | 48 | 960.6 |
| 20260505120056 | 6 | 140 | 11.3 | 33.8 | 0.00 | 0.00 | 0.00 | 46 | 961.0 |
| 20260505115526 | 6 | 107 | 12.9 | 37.0 | 0.00 | 0.00 | 0.00 | 51 | 961.0 |
| 20260505114956 | 5 | 116 | 12.9 | 38.6 | 0.00 | 0.00 | 0.00 | 52 | 961.0 |
| 20260505114425 | 6 | 141 | 14.5 | 48.3 | 0.00 | 0.00 | 0.00 | 48 | 961.0 |
| 20260505113855 | 6 | 134 | 12.9 | 48.3 | 0.00 | 0.00 | 0.00 | 46 | 961.0 |
| 20260505113355 | 6 | 129 | 9.7 | 41.8 | 0.00 | 0.00 | 0.00 | 44 | 961.0 |
| 20260505112855 | 6 | 88 | 9.7 | 33.8 | 0.00 | 0.00 | 0.00 | 45 | 961.0 |
| 20260505112355 | 7 | 106 | 9.7 | 32.2 | 0.00 | 0.00 | 0.00 | 44 | 960.6 |
| 20260505111826 | 7 | 105 | 8.0 | 30.6 | 0.00 | 0.00 | 0.00 | 47 | 961.0 |
| 20260505111325 | 7 | 136 | 9.7 | 30.6 | 0.00 | 0.00 | 0.00 | 49 | 960.6 |
| 20260505110825 | 6 | 199 | 9.7 | 35.4 | 0.00 | 0.00 | 0.00 | 51 | 961.0 |
| 20260505110255 | 6 | 46 | 8.0 | 35.4 | 0.00 | 0.00 | 0.00 | 52 | 961.0 |
| 20260505101725 | 3 | 126 | 8.0 | 27.4 | 0.00 | 0.00 | 0.00 | 57 | 960.4 |
| 20260505101225 | 3 | 87 | 11.3 | 35.4 | 0.00 | 0.00 | 0.00 | 61 | 960.4 |
| 20260505100655 | 3 | 187 | 12.9 | 37.0 | 0.00 | 0.00 | 0.00 | 58 | 960.5 |
| 20260505100155 | 3 | 159 | 14.5 | 37.0 | 0.00 | 0.00 | 0.00 | 56 | 960.3 |
| 20260505095655 | 3 | 193 | 11.3 | 37.0 | 0.00 | 0.00 | 0.00 | 55 | 960.3 |
| 20260505095155 | 3 | 212 | 9.7 | 29.0 | 0.00 | 0.00 | 0.00 | 57 | 960.2 |
| 20260505094655 | 3 | 116 | 9.7 | 27.4 | 0.00 | 0.00 | 0.00 | 58 | 960.2 |
| 20260505094155 | 3 | 86 | 9.7 | 30.6 | 0.00 | 0.00 | 0.00 | 56 | 960.2 |
| 20260505093655 | 3 | 81 | 11.3 | 30.6 | 0.00 | 0.00 | 0.00 | 58 | 960.3 |
| 20260505093155 | 3 | 120 | 9.7 | 29.0 | 0.00 | 0.00 | 0.00 | 57 | 960.3 |
| 20260505092655 | 3 | 112 | 9.7 | 27.4 | 0.00 | 0.00 | 0.00 | 56 | 960.3 |
| 20260505092125 | 3 | 123 | 11.3 | 27.4 | 0.00 | 0.00 | 0.00 | 58 | 960.4 |
| 20260505091625 | 3 | 188 | 11.3 | 32.2 | 0.00 | 0.00 | 0.00 | 58 | 960.3 |
| 20260505091125 | 3 | 167 | 12.9 | 37.0 | 0.00 | 0.00 | 0.00 | 57 | 960.2 |
| 20260505090624 | 3 | 163 | 11.3 | 37.0 | 0.00 | 0.00 | 0.00 | 56 | 960.3 |
| 20260505090054 | 3 | 176 | 11.3 | 33.8 | 0.00 | 0.00 | 0.00 | 60 | 960.3 |
| 20260505085555 | 3 | 153 | 9.7 | 33.8 | 0.00 | 0.00 | 0.00 | 59 | 960.3 |
| 20260505085024 | 3 | 101 | 11.3 | 33.8 | 0.00 | 0.00 | 0.00 | 60 | 960.1 |
| 20260505084455 | 2 | 183 | 11.3 | 29.0 | 0.00 | 0.00 | 0.00 | 61 | 960.2 |
| 20260505083954 | 2 | 175 | 11.3 | 29.0 | 0.00 | 0.00 | 0.00 | 59 | 960.1 |
| 20260505083454 | 2 | 115 | 11.3 | 49.9 | 0.00 | 0.00 | 0.00 | 60 | 960.1 |
| 20260505082954 | 2 | 10 | 12.9 | 49.9 | 0.00 | 0.00 | 0.00 | 59 | 960.0 |
| 20260505082454 | 3 | 175 | 11.3 | 30.6 | 0.00 | 0.00 | 0.00 | 61 | 960.0 |
| 20260505081924 | 2 | 187 | 9.7 | 30.6 | 0.00 | 0.00 | 0.00 | 62 | 960.1 |
| 20260505081424 | 2 | 134 | 11.3 | 30.6 | 0.00 | 0.00 | 0.00 | 63 | 960.0 |
| 20260505080924 | 2 | 135 | 9.7 | 30.6 | 0.00 | 0.00 | 0.00 | 62 | 960.0 |
| 20260505080424 | 2 | 101 | 9.7 | 25.7 | 0.00 | 0.00 | 0.00 | 62 | 960.0 |
| 20260505075854 | 2 | 199 | 9.7 | 33.8 | 0.00 | 0.00 | 0.00 | 62 | 960.0 |
| 20260505075354 | 2 | 212 | 11.3 | 33.8 | 0.00 | 0.00 | 0.00 | 65 | 960.0 |
| 20260505074854 | 2 | 159 | 9.7 | 32.2 | 0.00 | 0.00 | 0.00 | 64 | 960.0 |